[Date Prev][Date Next][Thread Prev][Thread Next][Date Index][Thread Index]

[jamsat-news:1218] jas2info #169


========================   最新情報   ==============================

        Last updated :Thu.03-Jan.-2000 16:40 (JST) #169

====================================================================
   
  1)アマチュア通信衛星情報 FOシリーズの軌道要素、テレメトリ、
   QSOの状況等をまとめてみました.
   
   昨年9月24日の熊本を直撃した台風18号により壊滅されました衛星追尾用
  アンテナが皆さんのお陰で復旧しました。これまでと同様にFO-20、29等の
  アマチュア通信衛星のテレメトリと分析結果を掲載致します、宜しくご活用して
  頂ければ幸いです.

   FO-29の2月3日(木)のテレメトリはJARLのホームページのスケジュールのとうり
  FMのデジタル系1200bpsメールボックス運用、周波数は435.18〜02
  MHzで12:13〜32(JST)で強力に受信できました.(まだアンテナ直下型
  RFアンプの接続が完了していない状態です.)

 8J1JCS>BEACON [02/03/00  12:24:49(JST)]:
 JAS-2    '97/02/03 03:27:49
 9C 03 63 08 00 3F 00 00 00 00
 00 00 15 D9 16 8C 5F 92 90 B0
 AA 52 A8 01 CC B4 B3 B3 B0 B2

 8J1JCS>BEACON [02/03/00  12:24:51]:D5 02 00 09 00 00 CF 40 00 00
 2E A3 FD 6C 3D 91 94 84 89 86
 00 00 00 A3 80 B3 F7 00 00 00

 8J1JCS>BEACON [02/03/00  12:24:52]:
 User not connect.

 8J1JCS>BEACON [02/03/00  12:24:53]:
 Total    6 File(s)
  No.  Date  UTC    To    From   Size   Subject
 0009 02/02 13:51 ALL    JN1GKZ      31 greetings
 0008 02/02 
 8J1JCS>BEACON [02/03/00  12:24:54]:11:40 ALL    DK5EC      170 test on 2. day
 0006 02/01 12:30 ALL    DK5EC     9728 another testfile for LUSAT
 0005 02/01 12:20 AL
 8J1JCS>BEACON [02/03/00  12:24:55]:L    DK5EC     6700 Test with kepler data
 0003 02/01 10:42 ALL    DK5EC      639 PSK satellite performance
 0001 02/01 10:36 ALL
 8J1JCS>BEACON [02/03/00  12:24:57]:   DK5EC      163 Greetings from Koenigswinter/Germany

 8J1JCS>BEACON [02/03/00  12:26:50]:
 JAS-2    '97/02/03 03:29:49
 9C 03 63 08 00 3F 00 00 00 00
 00 00 15 D9 52 8B 5F 92 90 B0
 AA 51 A8 01 E6 B3 B3 B2 B0 B1

 8J1JCS>BEACON [02/03/00  12:26:51]:D5 02 00 09 00 00 CF 40 00 00
 34 A3 06 71 35 8C 8F 84 89 86
 00 00 00 A3 80 B3 F7 00 00 00

 8J1JCS>BEACON [02/03/00  12:26:52]:
 User not connect.

 8J1JCS>BEACON [02/03/00  12:26:53]:
 Total    6 File(s)
  No.  Date  UTC    To    From   Size   Subject
 0009 02/02 13:51 ALL    JN1GKZ      31 greetings
 0008 02/02 
 8J1JCS>BEACON [02/03/00  12:26:54]:11:40 ALL    DK5EC      170 test on 2. day
 0006 02/01 12:30 ALL    DK5EC     9728 another testfile for LUSAT
 0005 02/01 12:20 AL
 8J1JCS>BEACON [02/03/00  12:26:55]:L    DK5EC     6700 Test with kepler data
 0003 02/01 10:42 ALL    DK5EC      639 PSK satellite performance
 0001 02/01 10:36 ALL
 8J1JCS>BEACON [02/03/00  12:26:57]:   DK5EC      163 Greetings from Koenigswinter/Germany
 
------------------------- FO-29の軌道要素 -----------------------------------------        
 
  ■ 軌道要素1:「jamsat−keps:963」より              
            SB KEPS @ AMSAT  $ORB00028.N
            2Line Orbital Elements 00028.AMSAT

 HR AMSAT ORBITAL ELEMENTS FOR AMATEUR SATELLITES IN NASA FORMAT
 FROM WA5QGD FORT WORTH,TX January 28, 2000
 SEND SUBSCRIBE/UNSUBSCRIBE TO majordomo@amsat.org ONLY
 BID: ORB00028.N

 DECODE 2-LINE ELSETS WITH THE FOLLOWING KEY:
 1 AAAAAU 00  0  0 BBBBB.BBBBBBBB  .CCCCCCCC  00000-0  00000-0 0  DDDZ
 2 AAAAA EEE.EEEE FFF.FFFF GGGGGGG HHH.HHHH III.IIII JJ.JJJJJJJJKKKKKZ
 KEY: A-CATALOGNUM B-EPOCHTIME C-DECAY D-ELSETNUM E-INCLINATION F-RAAN
 G-ECCENTRICITY H-ARGPERIGEE I-MNANOM J-MNMOTION K-ORBITNUM Z-CHECKSUM
 TO ALL RADIO AMATEURS BT
 
 FO-29
 1 24278U 96046B   00025.18304658  .00000042  00000-0  81707-4 0  3032
 2 24278  98.5870 311.9261 0350604 239.4909 117.1194 13.52698728169820
  
 ■ 軌道要素2:「jamsat−keps:962」より                         
         SB KEPS @ AMSAT  $ORB00028.O
         Orbital Elements  00028.OSCAR

 HR AMSAT ORBITAL ELEMENTS FOR OSCAR SATELLITES
 FROM WA5QGD FORT WORTH,TX January 28, 2000
 SEND SUBSCRIBE/UNSUBSCRIBE TO majordomo@amsat.org ONLY
 BID: ORB00028.O
 TO ALL RADIO AMATEURS BT

  Satellite: FO-29
 Catalog number: 24278
 Epoch time:      00025.18304658
 Element set:     303
 Inclination:       98.5870 deg
 RA of node:       311.9261 deg
 Eccentricity:    0.0350604
 Arg of perigee:   239.4909 deg
 Mean anomaly:     117.1194 deg
 Mean motion:   13.52698728 rev/day
 Decay rate:        4.2e-07 rev/day^2
 Epoch rev:           16982
 Checksum:              314
 
-------------------  FO-29(JAS-2)のテレメトリに関する情報  ------------------------
 
 2)上記の2月3日(木)の12:24(JST)のテレメトリの分析結果です.

テレメトリ	内   容		         換算値	単 位
F1ー12	磁気センサーX軸=      124019.6 nT
F1ー13	磁気センサーZ軸=       52941.2 nT
F0ー15	太陽電池発生電流=        1372.6 mA
F0ー16	B充放電電流 =         138.0 mA
F0ー17	B端子電圧  =       15.7  V
F0ー18	B中間端子電圧=	         6.9  V
F0ー19	バス電圧       =         7.3  V
F0ー20	+5安定化電圧	=	      5.1  V
F0ー21	ー5V安定化電圧	=	     -4.9  V
F0ー22	+10V安定化電圧=	     10.1  V
F0ー23	JTA出力電力	=	    -91.6  mW
F0ー24	JTD出力電力	=	   1324.5  mW
F0ー25	Bセル温度     =         2.0  ℃
F0ー26	構体温度ー1	=	     12.4  ℃
F0ー27	構体温度ー2	=	     12.4 ℃
F0ー28	構体温度ー3	=	     13.5 ℃
F0ー29	構体温度ー4	=	     12.8 ℃
F1ー18	太陽電池パネル温度ー1=    27.0 ℃
F1ー19	太陽電池パネル温度ー2=    20.2 ℃
F1ー24	太陽電池パネル温度ー3=     6.6 ℃
F1ー23	JTD  Tr温度      =  18.6 ℃

 * OSはWindows 2000,Office 2000 にて計算処理.

 ==================================================================================

 3)JARL のホームページに運用予定が記載されていましたのでご紹介します.
       ( http://www.jarl.or.jp/Japanese/3_Fuji/uy.htm )

        ■ ふじ3号/FOー29/JAS-2 ■  
   
     *** 運用予定について ***
    
  2月01日 〜 02月06日   デジタル系1200bpsメールボックス運用
  2月07日 〜 02月21日   アナログ系運用
  2月22日 〜 02月27日   デジタル系1200bpsメールボックス運用
  2月28日 〜 03月05日   アナログ系運用

 *なお,運用予定は都合により変更することがありますのでご了承願います。

 照会先 : lab@jarl.or.jp

 最新の情報はテレホンサービス(:03−3942−1000)をお聞きください。
   
 以後の運用に付きましては2月下旬にお知らせいたします。

-----------------------    FO-20(JAS-1b)道要素   -------------------------------
 4)
 ■ 軌道要素1 :出典はFO-29「ふじ3号」に同じ.
  
  FO-20
 1 20480U 90013C   00023.97812117 -.00000019  00000-0  27371-4 0  1995
 2 20480  99.0304 181.7269 0541046  24.2016 338.3514 12.83261942466652
 
 ■ 軌道要素2 :出典はFO-29「ふじ3号」に同じ.
               
  Satellite: FO-20
 Catalog number: 20480
 Epoch time:      00023.97812117
 Element set:     199
 Inclination:       99.0304 deg
 RA of node:       181.7269 deg
 Eccentricity:    0.0541046
 Arg of perigee:    24.2016 deg
 Mean anomaly:     338.3514 deg
 Mean motion:   12.83261942 rev/day
 Decay rate:       -1.9e-07 rev/day^2
 Epoch rev:           46665
 Checksum:              284
--------------------------------------------------------------------------------
 5)         ■ ふじ2号/FO−20/JAS-1b ■      
            
          「ふじ2号」 現況                                                                                  
             
   JAS-1b(ふじ2号)のCWテレメトリ信号に,1997年10月12日12時(JST)の
 日本上空通過時,3桁の数字が繰り返されるはずが3個の長音の繰り返しとなっているという
 異常が発見されました。この不具合は次の通過時からは回復していましたが13日15時20分の
 通過時に再び観測されました。現在はA0の送信が続いています。衛星のアナログ系中継モード
 動作は異常が無く,正常時のテレメトリ内容からは衛星の動作に異常は認められません。従って,
 直ちに衛星のミッションに影響することは無いと予想されますので,当面はアナログ系中継
 モードを継続します。衛星は既に打ち上げてから7年8ヶ月を経ておりますので,今後は監視を
 強化する予定です。アマチュア各位のレポートをお待ちします。
-------------------------------------------------------------------------------- 
  1997年10月14日 00時35分 確認のテレメトリ音 151 KB (A0) 
  1997年10月14日 11時10分 確認のテレメトリ音 216 KB (異常キーイング) 

  以上 JARLのホ−ムページの http://www.jarl.or.jp/Japanese/3_Fuji/fuji.htm
                                           
   =============   JAS-2 (ふじ3号)と現在までの情報   ===========
  
  A.電話によるふじ3号の運用情報
      社団法人日本アマチュア連盟によるサービス
           TEL .   03− 3942 − 1000
  B.アマチュア無線FAXサービス
      JARLによるふじ3号の軌道情報(オービットカレンダー)
         FAX No.  03− 3233 −0055
  C.WWWブラウザで情報を簡単に見れる人のためにJAS−2
     ふじ3号の衛星としての運用されるまでの名前)の概要、打ち上げ
     までの状況、運用中における状況を説明したホームページを紹介し
     ておきます.
     社団法人日本アマチュア無線連盟(JARL)のホームページ

          http://www.jarl.or.jp/Japanese/3_Fuji
 
     宇宙開発事業団(NASDA)ホームページ 
          http://www.nasda.go.jp/
         打上げ衛星 :地球観測プラットフォーム技術衛星(ADEOS) 
                       アマチュア衛星3号(JAS-2)
          http://yyy.tksc.nasda.go.jp/Home/Press/Press-j/jas-2_j.html        

  D.JAMSATによる軌道情報の活用
        JAMSATのホームページまたはjamsat−kepsの軌道要素より
      衛星の軌道情報を得る.
     JAMSATホームページ
               URL    http://www.jamsat.or.jp
       上記ホームページでは各地で行われるアマチュア通信衛星に関する
      ミューティングのお知らせや世界のアマチュア衛星に関する情報が
      満載されています.
 =========================================================================  
     JAMSATのメンバーのご協力によりJH6MME(高山 秀造)が
    執筆・編集を担当しております.ご指摘の意見、疑問やこのようにしたら
    というアイデアがありましたら小さなことでもかまいませんので気軽に下
    記アドレスまでご連絡ください.jamsat−newsからjas2
    infoへの転載をJH4PHW局坂井さんに担当して頂いております.  
                  E-mail : jh6mme@jamsat.or.jp : jh4phw@jamsat.or.jp
 ===============================   END  ===============================